Miscellaneous Local Product
Issued by NWS North Platte, NE

Home | Current Version | Previous Version | Graphics & Text | Print | Product List | Glossary On
Versions: 1 2 3 4 5 6 7 8 9 10 11 12 13 14 15 16 17 18 19 20 21 22 23 24 25 26 27 28 29 30 31 32 33 34 35 36 37 38 39 40 41 42 43 44 45 46 47 48 49 50
000
AXUS43 KLBF 051410
MISLBF


WESTERN AND NORTH CENTRAL NEBRASKA HOURLY WEATHER ROUNDUP
NATIONAL WEATHER SERVICE NORTH PLATTE NE
900 AM CDT SUN JUL 05 2015

***STATIONS NOT REPORTING VARIABLES SUCH AS SKY/WEATHER OR
PRESSURE ARE PROVIDED BY THE NEBRASKA DEPARTMENT OF
ROADS...RAWS...AND APRS NETWORKS...AND ARE NOT UNDER
NATIONAL WEATHER SERVICE QUALITY CONTROL***

...OBSERVATIONS IN AND NEAR THE EASTERN PANHANDLE OF NEBRASKA...

CITY           SKY/WX    TMP DP  RH WIND       PRES   REMARKS
PINE RIDGE     SUNNY     76  65  68 SW9       29.79F
CHADRON        SUNNY     74  66  76 CALM      29.79S
ALLIANCE       SUNNY     72  65  78 SE10      29.85S
SIDNEY         SUNNY     76  60  57 VRB5      29.90S
WHITECLAY        N/A     77  65  66 S10         N/A
CRESCENT LAKE    N/A     73  64  73 S6          N/A
BIG SPRINGS      N/A     74  64  70 SW7         N/A
$$

...OBSERVATIONS IN NORTH CENTRAL NEBRASKA...

CITY           SKY/WX    TMP DP  RH WIND       PRES   REMARKS
VALENTINE      SUNNY     78  65  63 S10       29.79S
THEDFORD       SUNNY     77  66  67 S16       29.84S
AINSWORTH      SUNNY     79  67  66 S14G23    29.81F
O`NEILL        MOSUNNY   74  68  83 S15       29.85S
ORD            CLOUDY    70  65  84 SE8       29.87F THUNDER
BROKEN BOW     SUNNY     76  68  76 SE13G21   29.87R
VALENTINE NWR    N/A     75  67  76 S9          N/A
SPRINGVIEW       N/A     78  67  69 SE3         N/A
HALSEY           N/A     76  65  70 S8          N/A
BREWSTER         N/A     79  71  76 S14         N/A
ROSE             N/A     86  81  85 S21         N/A  HX 101
NEWPORT          N/A     78  69  73 S12         N/A
SARGENT          N/A     73  67  82 SE5G12      N/A
CHAMBERS         N/A     80  68  67 S8G17       N/A
EWING            N/A     72  69  89 S7G15       N/A
$$

...OBSERVATIONS IN SOUTHWEST NEBRASKA AND FAR NORTHEAST COLORADO...

CITY           SKY/WX    TMP DP  RH WIND       PRES   REMARKS
WRAY           FAIR      76  58  54 W8        29.88F
HOLYOKE        FAIR      73  61  64 SW5       29.88F
IMPERIAL       SUNNY     75  63  66 SW12      29.86F
OGALLALA       SUNNY     74  64  69 S5        29.85S
NORTH PLATTE   SUNNY     78  63  59 S12       29.85R
MCCOOK         SUNNY     83  62  49 S17G24    29.83S
LEXINGTON      SUNNY     77  68  74 S10       29.86S
PAXTON           N/A     75  68  79 S6          N/A
GOTHENBURG       N/A     77  64  63 E3          N/A
CALLAWAY         N/A     76  70  83 S12         N/A
$$

...NORTH PLATTE AREA...

CITY           SKY/WX    TMP DP  RH WIND       PRES   REMARKS
AIRPORT        SUNNY     78  63  59 S12       29.85R
DOWNTOWN         N/A     79  66  64 MISG        N/A
HILLCREST        N/A     78  66  66 S6          N/A
$$

...SOME WEATHER OBSERVATIONS FROM AROUND THE REGION...

CITY           SKY/WX    TMP DP  RH WIND       PRES   REMARKS
DENVER         MOSUNNY   74  52  46 SW13      30.01R
LARAMIE        MOSUNNY   68  46  45 SW14      30.15S
CHEYENNE       MOSUNNY   75  48  38 W17G23    30.03S
SCOTTSBLUFF    MOSUNNY   72  64  76 NW3       29.87R
RAPID CITY     SUNNY     73  65  75 S3        29.75F
PIERRE         SUNNY     75  69  81 SE14      29.72S
WINNER         FAIR      78  65  63 SE16      29.78R
SIOUX FALLS    PTSUNNY   69  66  90 E10       29.89F FOG
OMAHA          CLOUDY    70  65  84 SE7       29.94R
GRAND ISLAND   PTSUNNY   73  67  81 N12       29.91R
KANSAS CITY    PTSUNNY   76  70  82 S9        30.01R
WICHITA        PTSUNNY   78  70  76 S14       29.94S
HAYS           MOSUNNY   79  63  57 S14G20    29.88R
LIBERAL        SUNNY     79  64  61 S16       29.96S
GOODLAND       SUNNY     74  62  66 SW9       29.89S
$$



USA.gov is the U.S. government's official web portal to all federal, state and local government web resources and services.